Back to catalog

COSMOS 2239

AliveMilitaryPO
NORAD 22590·PAYLOAD·🇷🇺 Russia

Launched Apr 1, 1993 from Plesetsk Cosmodrome

Loading…

Next Passes (next 24 hours)

TLE

FreshSource: Space-Track

Epoch: Sep 14, 2026, 05:52 UTC

1 22590U 93020A   26257.24498832  .00000036  00000-0  21489-4 0  9991
2 22590  82.9272  74.6012 0024003  47.1777 126.3148 13.75640851679021

Track COSMOS 2239 in real time with AllMySat

Download on the App Store